Погода в Юэяне

Китай     29°22′43″N   113°07′48″E
темп.,
°C
ветер,
м/с
пор.,
м/с
влажн.,
%
обл.,
%
осадки,
мм/ч
давл.,
гПа
погр.,
м
18 апреля, вс
вс1823:00+15св3867100 0.0 1021188
02:00+15св3668100 0.0 1020132
05:00+14ссв2472100 0.0 101981
08:00+14ссз2378100 0.0 102060
11:00+14с4784100 0.1 1021256
14:00+14св2491100 2.6 1019268
17:00+15в2584100 2.4 1018358
20:00+14ююз2291100 2.5 101868
19 апреля, пн
пн1923:00+14ююз119197 0.0 101937
02:00+13ююз229267 0.0 101787
05:00+13юв119356 0.0 101611
08:00+14ююв0185100 0.0 1017216
11:00+16всв1278100 0.0 1017456
14:00+19вюв226922 0.0 1014755
17:00+20ююв226664 0.0 10131007
20:00+18ююз127985 0.0 101420
20 апреля, вт
вт2023:00+18юв118198 0.0 101411
02:00+16в228699 0.0 101314
05:00+17вюв118999 0.3 101222
08:00+18вюв1184100 0.4 101394
11:00+18ссв1290100 0.9 1014147
14:00+19в1287100 2.3 1012308
17:00+19св128765 0.9 1011297
20:00+18св239565 1.4 101185
21 апреля, ср
ср2123:00+18ссв229694 0.5 101245
02:00+18сз0096100 1.1 101112
05:00+18зюз009699 0.3 101011
08:00+19з1198100 5.4 101291
11:00+20з1295100 5.3 1013306
14:00+19ссз2396100 7.1 1011291
17:00+18ссв3594100 0.1 1010444
20:00+17ссв3596100 0.1 1012317
22 апреля, чт
чт2223:00+17с3596100 0.6 1012282
02:00+16с349699 0.6 1011262
05:00+16ссв2496100 0.1 1010275
08:00+16ссв2494100 0.3 1012285
11:00+18ссв348691 0.0 1012470
14:00+21ссв337578 0.0 1010836
17:00+21св347495 0.0 1009805
20:00+18св228917 0.0 101046